Espaço - Ciências - Fenômenos Naturais
Meteógrafos Informações Meteorológicas em tempo real

Aeroporto de Congonhas

Histórico do Tempo
Temperatura atual: 17 graus 62 F    Umidade relativa: 82 %
Velocidade do vento: 07 nós 12 Km/h    Direção: 140 graus SE
Ajuste do altímetro ..: 1026 HPA
Visibilidade: Ótima    Tempo presente: Não Disponível

Observação
Poucas nuvens a 2300 Pés.

Data Hora BRTTempo°CUmidadePressãoVentoVisib.
22/06 - 20:55   Não Disponível 17° 82% 1026 Sudeste/12 km/h OK
22/06 - 19:55   Não Disponível 17° 82% 1026 Sudeste/12 km/h OK
22/06 - 18:55   Parcialmente Nublado 17° 88% 1025 Sudeste/10 km/h OK
22/06 - 17:55   Não Disponível 17° 88% 1025 Sul-sudeste/14 km/h OK
22/06 - 16:55   Não Disponível 18° 82% 1024 Sul-sudeste/19 km/h OK
22/06 - 15:55   Poucas nuvens esparsas 22° 56% 1024 Leste/14 km/h OK
22/06 - 14:55   Poucas nuvens esparsas 22° 56% 1024 Leste/14 km/h OK
22/06 - 13:56   Poucas nuvens esparsas 22° 53% 1025 Leste/18 km/h OK
22/06 - 12:55   Não Disponível 21° 60% 1027 Este-nordeste/14 km/h 9999
22/06 - 11:55   Não Disponível 21° 60% 1027 Este-nordeste/14 km/h 9999
22/06 - 10:55   Não Disponível 18° 72% 1028 Leste/14 km/h 9999
22/06 - 09:55   Não Disponível 18° 72% 1028 Leste/14 km/h 9999
22/06 - 08:55   Não Disponível 17° 77% 1028 Leste/10 km/h 9999
22/06 - 07:55   Céu Limpo 14° 87% 1026 Sudeste/5 km/h CAVO
22/06 - 06:55   Céu Limpo 14° 87% 1026 Sudeste/5 km/h CAVO
22/06 - 05:55   Poucas nuvens esparsas 15° 87% 1026 Leste/10 km/h OK
22/06 - 04:55   Muitas Nuvens 16° 82% 1026 Leste/7 km/h 9999
22/06 - 03:55   Parcialmente Nublado 16° 82% 1026 Leste/10 km/h 9999
22/06 - 02:55   Poucas nuvens esparsas 16° 82% 1027 Este-sudeste/9 km/h 9999
22/06 - 01:55   Parcialmente Nublado 16° 87% 1027 Este-sudeste/9 km/h OK
22/06 - 00:55   Muitas Nuvens 16° 87% 1028 Sul-sudeste/14 km/h OK
21/06 - 23:55   Parcialmente Nublado 16° 87% 1028 Sudeste/10 km/h OK
21/06 - 22:55   Parcialmente Nublado ND° ND% ND Sudeste/10 km/h OK
21/06 - 21:55   Poucas nuvens esparsas 16° 87% 1028 Sudeste/12 km/h OK


Apolo11.com - Todos os direitos reservados - 2000 - 2017
Política de Privacidade   |     Termo de Uso e Licenciamento   |  -   Entre em Contato

"O destino de qualquer nação, em qualquer época, depende das opiniões de seus jovens entre 5 e 20 anos" - Goethe